TimeMDT,TemperatureF,Dew PointF,Humidity,Sea Level PressureIn,VisibilityMPH,Wind Direction,Wind SpeedMPH,Gust SpeedMPH,PrecipitationIn,Events,Conditions,WindDirDegrees,DateUTC
12:16 AM,40.6,25.5,55,30.06,10.0,SW,3.5,-,N/A,,Clear,220,2014-03-10 06:16:00
12:36 AM,40.8,27.3,59,30.05,10.0,Calm,Calm,-,N/A,,Clear,0,2014-03-10 06:36:00
12:56 AM,43.0,25.3,50,30.05,10.0,SW,3.5,-,N/A,,Clear,230,2014-03-10 06:56:00
1:15 AM,41.4,28.6,60,30.05,10.0,SW,5.8,-,N/A,,Clear,220,2014-03-10 07:15:00
1:36 AM,44.6,25.0,46,30.05,10.0,Calm,Calm,-,N/A,,Scattered Clouds,0,2014-03-10 07:36:00
1:56 AM,-9999,-9999,N/A,30.05,10.0,NW,5.8,-,N/A,,Scattered Clouds,320,2014-03-10 07:56:00
2:16 AM,57.7,4.1,12,30.05,10.0,WSW,12.7,19.6,N/A,,Scattered Clouds,250,2014-03-10 08:16:00
2:36 AM,-9999,-9999,N/A,30.04,10.0,WSW,9.2,-,N/A,,Scattered Clouds,240,2014-03-10 08:36:00
2:56 AM,-9999,-9999,N/A,30.02,10.0,WSW,11.5,19.6,N/A,,Clear,240,2014-03-10 08:56:00
3:16 AM,-9999,-9999,N/A,30.00,10.0,WSW,8.1,-,N/A,,Clear,240,2014-03-10 09:16:00
3:35 AM,-9999,-9999,N/A,30.00,10.0,SW,11.5,24.2,N/A,,Clear,230,2014-03-10 09:35:00
3:56 AM,-9999,-9999,N/A,29.98,10.0,SSW,6.9,16.1,N/A,,Clear,210,2014-03-10 09:56:00
4:16 AM,-9999,-9999,N/A,29.97,10.0,SSW,6.9,-,N/A,,Clear,210,2014-03-10 10:16:00
4:36 AM,-9999,-9999,N/A,29.97,10.0,WSW,8.1,-,N/A,,Clear,250,2014-03-10 10:36:00
4:56 AM,-9999,-9999,N/A,29.97,10.0,West,4.6,-,N/A,,Clear,270,2014-03-10 10:56:00
5:16 AM,54.7,7.9,15,29.97,10.0,West,6.9,-,N/A,,Clear,260,2014-03-10 11:16:00
5:36 AM,51.4,12.4,21,29.97,10.0,West,8.1,-,N/A,,Clear,270,2014-03-10 11:36:00
5:56 AM,48.7,15.3,26,29.96,10.0,South,6.9,-,N/A,,Clear,170,2014-03-10 11:56:00
6:16 AM,47.1,15.6,28,29.97,10.0,Calm,Calm,-,N/A,,Clear,0,2014-03-10 12:16:00
6:36 AM,41.5,21.2,44,29.97,10.0,SE,5.8,-,N/A,,Clear,140,2014-03-10 12:36:00
6:56 AM,43.5,16.7,34,29.97,10.0,SSE,3.5,-,N/A,,Clear,160,2014-03-10 12:56:00
7:16 AM,40.1,22.1,49,29.97,10.0,Calm,Calm,-,N/A,,Clear,0,2014-03-10 13:16:00
7:36 AM,38.8,22.6,52,29.96,10.0,Calm,Calm,-,N/A,,Clear,0,2014-03-10 13:36:00
7:55 AM,38.3,26.1,61,29.96,10.0,SSW,4.6,-,N/A,,Clear,210,2014-03-10 13:55:00
8:16 AM,42.3,25.3,51,29.96,10.0,Calm,Calm,-,N/A,,Clear,0,2014-03-10 14:16:00
8:36 AM,46.0,26.1,46,29.96,10.0,Calm,Calm,-,N/A,,Clear,0,2014-03-10 14:36:00
8:56 AM,51.4,27.7,40,29.96,10.0,Calm,Calm,-,N/A,,Clear,0,2014-03-10 14:56:00
9:16 AM,-9999,-9999,N/A,29.96,10.0,NNE,3.5,-,N/A,,Clear,20,2014-03-10 15:16:00
9:36 AM,-9999,-9999,N/A,29.96,10.0,North,5.8,-,N/A,,Clear,10,2014-03-10 15:36:00
9:56 AM,-9999,-9999,N/A,29.96,10.0,North,8.1,-,N/A,,Clear,10,2014-03-10 15:56:00
10:16 AM,-9999,-9999,N/A,29.94,10.0,NNW,6.9,-,N/A,,Clear,340,2014-03-10 16:16:00
10:36 AM,-9999,-9999,N/A,29.95,10.0,North,6.9,-,N/A,,Clear,350,2014-03-10 16:36:00
10:56 AM,-9999,-9999,N/A,29.94,10.0,Calm,Calm,-,N/A,,Clear,0,2014-03-10 16:56:00
11:16 AM,-9999,-9999,N/A,29.93,10.0,NNE,3.5,-,N/A,,Clear,30,2014-03-10 17:16:00
11:36 AM,-9999,-9999,N/A,29.92,10.0,Calm,Calm,-,N/A,,Clear,0,2014-03-10 17:36:00
11:56 AM,-9999,-9999,N/A,29.91,10.0,NNW,4.6,-,N/A,,Clear,340,2014-03-10 17:56:00
12:16 PM,-9999,-9999,N/A,29.90,10.0,NE,4.6,-,N/A,,Clear,50,2014-03-10 18:16:00
12:36 PM,-9999,-9999,N/A,29.89,10.0,Calm,Calm,-,N/A,,Clear,0,2014-03-10 18:36:00
12:55 PM,-9999,-9999,N/A,29.88,10.0,NW,3.5,-,N/A,,Clear,320,2014-03-10 18:55:00
1:16 PM,-9999,-9999,N/A,29.86,10.0,SE,3.5,-,N/A,,Clear,140,2014-03-10 19:16:00
1:35 PM,-9999,-9999,N/A,29.84,10.0,Calm,Calm,-,N/A,,Clear,0,2014-03-10 19:35:00
1:56 PM,-9999,-9999,N/A,29.82,10.0,SSE,4.6,-,N/A,,Clear,160,2014-03-10 19:56:00
2:16 PM,-9999,-9999,N/A,29.80,10.0,SSW,3.5,-,N/A,,Clear,200,2014-03-10 20:16:00
2:36 PM,-9999,-9999,N/A,29.79,10.0,Calm,Calm,-,N/A,,Clear,0,2014-03-10 20:36:00
2:56 PM,-9999,-9999,N/A,29.77,10.0,Calm,Calm,-,N/A,,Clear,0,2014-03-10 20:56:00
3:16 PM,-9999,-9999,N/A,29.76,10.0,Calm,Calm,-,N/A,,Clear,0,2014-03-10 21:16:00
3:36 PM,-9999,-9999,N/A,29.76,10.0,SW,5.8,-,N/A,,Clear,220,2014-03-10 21:36:00
3:56 PM,-9999,-9999,N/A,29.73,10.0,SSW,3.5,-,N/A,,Clear,200,2014-03-10 21:56:00
4:16 PM,-9999,-9999,N/A,29.71,10.0,SE,4.6,-,N/A,,Clear,130,2014-03-10 22:16:00
4:36 PM,-9999,-9999,N/A,29.70,10.0,NNE,4.6,-,N/A,,Clear,20,2014-03-10 22:36:00
4:56 PM,-9999,-9999,N/A,29.69,10.0,SSE,6.9,-,N/A,,Clear,150,2014-03-10 22:56:00
5:16 PM,-9999,-9999,N/A,29.69,10.0,SE,10.4,-,N/A,,Clear,130,2014-03-10 23:16:00
5:36 PM,-9999,-9999,N/A,29.68,10.0,SE,13.8,18.4,N/A,,Clear,140,2014-03-10 23:36:00
5:56 PM,-9999,-9999,N/A,29.68,10.0,ESE,9.2,-,N/A,,Clear,120,2014-03-10 23:56:00
6:16 PM,-9999,-9999,N/A,29.68,10.0,ESE,15.0,19.6,N/A,,Clear,120,2014-03-11 00:16:00
6:36 PM,-9999,-9999,N/A,29.67,10.0,SE,9.2,-,N/A,,Clear,130,2014-03-11 00:36:00
6:55 PM,-9999,-9999,N/A,29.66,10.0,Calm,Calm,-,N/A,,Clear,0,2014-03-11 00:55:00
7:16 PM,-9999,-9999,N/A,29.66,10.0,Calm,Calm,-,N/A,,Clear,0,2014-03-11 01:16:00
7:36 PM,-9999,-9999,N/A,29.66,10.0,East,4.6,-,N/A,,Clear,90,2014-03-11 01:36:00
7:56 PM,-9999,-9999,N/A,29.67,10.0,Calm,Calm,-,N/A,,Clear,0,2014-03-11 01:56:00
8:16 PM,-9999,-9999,N/A,29.68,10.0,NNW,3.5,-,N/A,,Clear,340,2014-03-11 02:16:00
8:36 PM,-9999,-9999,N/A,29.67,10.0,West,3.5,-,N/A,,Clear,260,2014-03-11 02:36:00
8:56 PM,-9999,-9999,N/A,29.66,10.0,SSW,5.8,-,N/A,,Clear,210,2014-03-11 02:56:00
9:16 PM,-9999,-9999,N/A,29.66,10.0,Calm,Calm,-,N/A,,Clear,0,2014-03-11 03:16:00
9:36 PM,49.8,17.6,28,29.66,10.0,WNW,9.2,-,N/A,,Clear,290,2014-03-11 03:36:00
9:56 PM,-9999,-9999,N/A,29.66,10.0,West,8.1,-,N/A,,Clear,270,2014-03-11 03:56:00
10:16 PM,-9999,-9999,N/A,29.65,10.0,WNW,8.1,-,N/A,,Clear,290,2014-03-11 04:16:00
10:36 PM,49.1,14.2,25,29.65,10.0,NW,11.5,-,N/A,,Clear,310,2014-03-11 04:36:00
10:56 PM,-9999,-9999,N/A,29.65,10.0,NW,12.7,-,N/A,,Clear,310,2014-03-11 04:56:00
11:16 PM,-9999,-9999,N/A,29.65,10.0,WNW,15.0,-,N/A,,Clear,290,2014-03-11 05:16:00
11:36 PM,-9999,-9999,N/A,29.65,10.0,West,10.4,-,N/A,,Clear,270,2014-03-11 05:36:00
11:56 PM,57.4,6.6,13,29.65,10.0,West,11.5,17.3,N/A,,Clear,260,2014-03-11 05:56:00